Content
SEND FEEDBACK

Daily
Averages
Monthly
Summary
United States of America

WAHWEAP, ARIZONA


Home > North America > United States > Arizona
Elevation: 3703 feet     Latitude: 36 59N     Longitude: 111 29W

WEATHER
 
SELECT A DAY
Number of Records: 194,777;   Date Range: 1/1/95 - 8/12/14
 
SHARE

PRINT THIS DATA

[ ← Previous Day ]
WEATHER ALMANAC - MARCH 17, 2013
[ Next Day → ]
[ °C ]   °F
Weather ElementAverageHighLow
Temperature60.7 °F70 °F (1:53 pm)50 °F (2:53 am)
Dewpoint14.4 °F27 °F (4:53 am)3 °F (11:53 am)
Humidity19.5 %41 % (4:53 am)8 % (11:53 am)
Barometer29.71 in29.78 in (10:53 pm)29.66 in (3:53 am)
Wind Speed7.6 mph17.3 mph (1:53 pm)
Wind Gust32.2 mph (1:53 pm)
Weather ElementAverage
Visibility10 mi
Wind DirectionWSW (242.6 °)

Weather ElementTotal
Precipitation---
Heating Degree Days5 (Base 65)
Growing Degree Days10 (Base 50)
Averaged from 23 records on March 17, 2013
WEATHER CONDITIONS BREAKOUT
WIND DIRECTION BREAKOUT
WEATHER BY HOUR - MARCH 17, 2013
[ °C ]   °F
Local TimeTemperatureDewpointHumidityBarometerVisibilityWind DirectionWind SpeedGust SpeedPrecipitationEventsConditions
1:53 AM53.1 °F23.0 °F31 %29.67 in10.0 miCalmClear
2:53 AM50.0 °F25.0 °F38 %29.67 in10.0 miCalmClear
3:53 AM52.0 °F25.0 °F35 %29.66 in10.0 miNorth (350°)5.8 mphClear
4:53 AM50.0 °F27.0 °F41 %29.68 in10.0 miNorth (350°)4.6 mphClear
5:53 AM51.1 °F27.0 °F39 %29.69 in10.0 miSouth (190°)6.9 mphPartly Cloudy
6:53 AM50.0 °F26.1 °F39 %29.73 in10.0 miWNW (290°)3.5 mphClear
7:53 AM55.0 °F23.0 °F29 %29.74 in10.0 miSW (220°)3.5 mphClear
8:53 AM60.1 °F23.0 °F24 %29.75 in10.0 miCalmClear
9:53 AM62.1 °F19.0 °F19 %29.74 in10.0 miNorth (360°)3.5 mphClear
10:53 AM64.9 °F10.0 °F12 %29.72 in10.0 miWNW (290°)10.4 mph16.1 mphClear
11:53 AM68.0 °F3.0 °F8 %29.70 in10.0 miWest (280°)10.4 mph19.6 mphClear
12:53 PM69.1 °F6.1 °F9 %29.70 in10.0 miWest (270°)15.0 mph26.5 mphClear
1:53 PM70.0 °F5.0 °F8 %29.67 in10.0 miWest (280°)17.3 mph32.2 mphClear
2:53 PM70.0 °F7.0 °F9 %29.66 in10.0 miWest (260°)15.0 mph29.9 mphClear
3:53 PM70.0 °F6.1 °F8 %29.66 in10.0 miWest (280°)9.2 mph27.6 mphClear
4:53 PM69.1 °F8.1 °F9 %29.68 in10.0 miWest (260°)11.5 mph26.5 mphClear
5:53 PM66.9 °F10.0 °F11 %29.70 in10.0 miWest (260°)13.8 mph23.0 mphClear
6:53 PM64.9 °F10.9 °F12 %29.72 in10.0 miWest (270°)10.4 mph18.4 mphClear
7:53 PM63.0 °F10.9 °F13 %29.73 in10.0 miWest (260°)6.9 mph18.4 mphClear
8:53 PM62.1 °F10.9 °F13 %29.75 in10.0 miWSW (250°)6.9 mphClear
9:53 PM62.1 °F6.1 °F11 %29.75 in10.0 miWSW (250°)8.1 mph20.7 mphClear
10:53 PM57.0 °F10.0 °F15 %29.78 in10.0 miNNW (340°)5.8 mphClear
11:53 PM55.9 °F9.0 °F15 %29.78 in10.0 miWest (270°)5.8 mphClear
Hourly data recorded from KPGA, located miles away from Wahweap, Arizona







STORIES FROM OUR PARTNERS